• Join FlightAware (Why Join?)
  • Login
  • US Flag 
10:26PM EST


 

Airport Tracker/Info


-or-


 

Live Flight TrackerFlight Track Log ✈ AAY956 ✈ 14-Mar-2014 ✈ KPGD - KIAG

Flight Track Log - Related Links

Times and Time Zones

All times are in EDT time to prevent confusion due to time zone crossing. See the AAY956 flight status page for this flight to view local times or setup timezone preferences in your user account.

Time Position Orientation Groundspeed Altitude Reporting Facility
EDT Latitude Longitude Course Direction KTS MPH feet Rate Location/Type
02:34PM 26.9856 -81.9494 North 203 234 2,800  Level Miami Center
02:35PM 27.0503 -81.9453 North 220 253 3,800 1,800 Climbing Miami Center
02:36PM 27.1233 -81.9483 358° North 243 280 6,400 2,460 Climbing Miami Center
02:37PM 27.2008 -81.9425 North 264 304 8,800 2,040 Climbing Miami Center
02:38PM 27.2806 -81.9297 North 277 319 10,500 1,620 Climbing Miami Center
02:39PM 27.3728 -81.9172 North 304 350 12,100 1,980 Climbing Miami Center
02:40PM 27.4733 -81.9006 North 341 392 14,500 2,400 Climbing Miami Center
02:41PM 27.5806 -81.8844 North 372 428 16,900 1,740 Climbing Miami Center
02:42PM 27.6961 -81.9153 347° North 381 438 18,000 1,440 Climbing Miami Center
02:43PM 27.8033 -81.9553 342° North 394 453 19,800 1,320 Climbing Miami Center
02:45PM 28.0197 -82.0414 341° North 429 494 21,900 1,020 Climbing Jacksonville Center
02:46PM 28.1081 -82.1231 321° Northwest 419 482 22,900 1,380 Climbing Jacksonville Center
02:47PM 28.2044 -82.1931 327° Northwest 419 482 24,700 1,800 Climbing Jacksonville Center
02:48PM 28.3194 -82.2325 343° North 411 473 26,600 1,680 Climbing Jacksonville Center
02:49PM 28.4322 -82.2669 345° North 416 479 28,100 1,860 Climbing Jacksonville Center
02:50PM 28.5389 -82.3064 342° North 416 479 30,400 1,860 Climbing Jacksonville Center
02:51PM 28.6433 -82.3389 345° North 401 461 31,900 780 Climbing Jacksonville Center
02:52PM 28.7331 -82.3669 345° North 377 434 32,000  Climbing Jacksonville Center
02:53PM 28.8378 -82.4044 343° North 382 440 32,000  Level Jacksonville Center
02:54PM 28.9422 -82.4417 343° North 382 440 32,000  Level Jacksonville Center
02:55PM 29.0444 -82.4769 343° North 382 440 32,000  Level Jacksonville Center
02:56PM 29.1492 -82.5122 344° North 382 440 32,000  Level Jacksonville Center
02:57PM 29.2514 -82.5497 342° North 382 440 32,000  Level Jacksonville Center
02:58PM 29.3622 -82.5708 351° North 382 440 32,000 300 Level Jacksonville Center
03:00PM 29.5875 -82.5653 North 398 458 33,000 300 Climbing Jacksonville Center
03:01PM 29.7003 -82.5603 North 403 464 33,000  Level Jacksonville Center
03:02PM 29.8131 -82.5597 360° North 403 464 33,000  Level Jacksonville Center
03:03PM 29.9236 -82.5569 North 403 464 33,000  Level Jacksonville Center
03:04PM 30.0364 -82.5614 358° North 403 464 33,000  Level Jacksonville Center
03:05PM 30.1450 -82.5586 North 396 456 33,000  Level Jacksonville Center
03:06PM 30.2556 -82.5583 360° North 396 456 33,000  Level Jacksonville Center
03:07PM 30.3664 -82.5556 North 396 456 33,000  Level Jacksonville Center
03:08PM 30.4747 -82.5528 North 391 450 33,000  Level Jacksonville Center
03:09PM 30.5875 -82.5522 360° North 391 450 33,000  Level Jacksonville Center
03:10PM 30.7003 -82.5472 North 396 456 33,000  Level Jacksonville Center
03:11PM 30.8111 -82.5419 North 396 456 33,000  Level Jacksonville Center
03:12PM 30.9217 -82.5367 North 401 461 33,000  Level Jacksonville Center
03:13PM 31.0322 -82.5289 North 401 461 33,000  Level Jacksonville Center
03:14PM 31.1469 -82.5139 North 401 461 33,000  Level Jacksonville Center
03:15PM 31.2578 -82.4989 North 406 467 33,000  Level Jacksonville Center
03:16PM 31.3725 -82.4789 North 406 467 33,000  Level Jacksonville Center
03:17PM 31.4853 -82.4639 North 406 467 33,000  Level Jacksonville Center
03:18PM 31.5958 -82.4461 North 406 467 33,000  Level Jacksonville Center
03:19PM 31.7064 -82.4311 North 406 467 33,000  Level Jacksonville Center
03:20PM 31.8211 -82.4133 North 406 467 33,000  Level Jacksonville Center
03:21PM 31.9778 -82.3911 North 399 459 33,000  Level Atlanta Center
03:22PM 32.0903 -82.3742 North 406 467 33,000  Level Atlanta Center
03:23PM 32.1986 -82.3600 North 406 467 33,000  Level Atlanta Center
03:24PM 32.3006 -82.3408 North 406 467 33,000  Level Atlanta Center
03:25PM 32.4131 -82.3264 North 406 467 33,000  Level Atlanta Center
03:26PM 32.5256 -82.3119 North 406 467 33,000  Level Atlanta Center
03:27PM 32.6381 -82.2950 North 406 467 33,000  Level Atlanta Center
03:28PM 32.7547 -82.2753 North 411 473 33,000  Level Atlanta Center
03:29PM 32.8672 -82.2606 North 411 473 33,000  Level Atlanta Center
03:30PM 32.9797 -82.2436 North 406 467 33,000  Level Atlanta Center
03:31PM 33.0942 -82.2264 North 406 467 33,000  Level Atlanta Center
03:32PM 33.2086 -82.2089 North 406 467 33,000  Level Atlanta Center
03:33PM 33.3233 -82.1917 North 406 467 33,000  Level Atlanta Center
03:34PM 33.4356 -82.1744 North 406 467 33,000  Level Atlanta Center
03:35PM 33.5503 -82.1544 North 412 474 33,000  Level Atlanta Center
03:36PM 33.6794 -82.1367 North 412 474 33,000  Level Atlanta Center
03:37PM 33.7939 -82.1192 North 417 480 33,000  Level Atlanta Center
03:38PM 33.9106 -82.1014 North 417 480 33,000  Level Atlanta Center
03:39PM 34.0292 -82.0811 North 424 488 33,000  Level Atlanta Center
03:40PM 34.1436 -82.0661 North 424 488 33,000  Level Atlanta Center
03:41PM 34.2603 -82.0483 North 424 488 33,000  Level Atlanta Center
03:42PM 34.3769 -82.0303 North 424 488 33,000 -120 Level Atlanta Center
03:43PM 34.4933 -82.0125 North 424 488 32,800 -540 Descending Atlanta Center
03:44PM 34.6100 -81.9944 North 424 488 32,000 -840 Descending Atlanta Center
03:45PM 34.7142 -81.9794 North 429 494 31,200 -540 Descending Atlanta Center
03:46PM 34.8306 -81.9614 North 424 488 31,000 -120 Descending Atlanta Center
03:47PM 34.9492 -81.9406 North 424 488 31,000  Level Atlanta Center
03:48PM 35.0658 -81.9225 North 424 488 31,000  Level Atlanta Center
03:49PM 35.1819 -81.8864 14° North 424 488 31,000  Level Atlanta Center
03:50PM 35.2961 -81.8581 11° North 424 488 31,000  Level Atlanta Center
03:51PM 35.4144 -81.8217 14° North 429 494 31,000  Level Atlanta Center
03:52PM 35.5328 -81.7931 11° North 429 494 31,000 480 Level Atlanta Center
03:53PM 35.6636 -81.7511 15° North 429 494 32,000 960 Climbing Atlanta Center
03:54PM 35.7819 -81.7197 12° North 429 494 33,000 480 Climbing Atlanta Center
03:55PM 35.9022 -81.6828 14° North 429 494 33,000  Level Atlanta Center
03:56PM 36.0244 -81.6458 14° North 434 499 33,000  Level Atlanta Center
03:57PM 36.1406 -81.6117 13° North 429 494 33,000  Level Atlanta Center
03:58PM 36.2567 -81.5772 13° North 429 494 33,000  Level Atlanta Center
03:59PM 36.3792 -81.5425 13° North 429 494 33,000  Level Atlanta Center
04:00PM 36.4972 -81.5078 13° North 429 494 33,000  Level Atlanta Center
04:01PM 36.6175 -81.4706 14° North 429 494 33,000  Level Atlanta Center
04:02PM 36.7375 -81.4356 13° North 429 494 33,000  Level Atlanta Center
04:03PM 36.8536 -81.4006 14° North 429 494 33,000  Level Atlanta Center
04:04PM 36.9739 -81.3681 12° North 429 494 33,000  Level Atlanta Center
04:06PM 37.1983 -81.2997 14° North 440 506 33,000  Level Indianapolis Center
04:07PM 37.3206 -81.2614 14° North 439 505 33,000  Level Indianapolis Center
04:08PM 37.4356 -81.2269 13° North 438 504 33,000  Level Indianapolis Center
04:09PM 37.5747 -81.1861 13° North 437 503 33,000  Level Indianapolis Center
04:10PM 37.6903 -81.1503 14° North 437 503 33,000  Level Indianapolis Center
04:11PM 37.8050 -81.1158 13° North 437 503 33,000  Level Indianapolis Center
04:12PM 37.9372 -81.0778 13° North 437 503 33,000  Level Indianapolis Center
04:13PM 38.0569 -81.0436 13° North 437 503 33,000  Level Indianapolis Center
04:15PM 38.1764 -81.0078 13° North 438 504 33,000  Level Indianapolis Center
04:16PM 38.2950 -80.9739 13° North 438 504 33,000  Level Indianapolis Center
04:17PM 38.4142 -80.9383 13° North 438 504 33,000  Level Indianapolis Center
04:18PM 38.5581 -80.8975 13° North 439 505 33,000  Level Indianapolis Center
04:19PM 38.6772 -80.8622 13° North 440 506 33,000  Level Indianapolis Center
04:20PM 38.7972 -80.8261 13° North 442 509 33,000  Level Indianapolis Center
04:21PM 38.9169 -80.7894 13° North 442 509 33,000  Level Indianapolis Center
04:22PM 39.0367 -80.7572 12° North 442 509 33,000  Level Indianapolis Center
04:23PM 39.1803 -80.6983 18° North 451 519 33,000  Level Indianapolis Center
04:24PM 39.2997 -80.6528 16° North 451 519 33,000  Level Indianapolis Center
04:25PM 39.4214 -80.6042 17° North 451 519 33,000  Level Indianapolis Center
04:26PM 39.5422 -80.5550 17° North 452 520 33,000  Level Indianapolis Center
04:27PM 39.6572 -80.5100 17° North 451 519 33,000  Level Cleveland Center
04:28PM 39.7769 -80.4581 18° North 452 520 33,000  Level Cleveland Center
04:29PM 39.8978 -80.4067 18° North 454 522 33,000  Level Cleveland Center
04:30PM 40.0428 -80.3447 18° North 458 527 33,000  Level Cleveland Center
04:31PM 40.1631 -80.2969 17° North 455 524 33,000  Level Cleveland Center
04:32PM 40.2836 -80.2428 19° North 455 524 33,000 -240 Level Cleveland Center
04:33PM 40.4128 -80.1908 17° North 454 522 32,600 -540 Descending Cleveland Center
04:34PM 40.5331 -80.1369 19° North 454 522 31,900 -780 Descending Cleveland Center
04:35PM 40.6556 -80.0864 17° North 460 529 31,100 -480 Descending Cleveland Center
04:36PM 40.7792 -80.0314 19° North 467 537 31,000 -240 Descending Cleveland Center
04:37PM 40.9064 -79.9775 18° North 470 541 30,600 -840 Descending Cleveland Center
04:38PM 41.0308 -79.9233 18° North 470 541 29,300 -1,260 Descending Cleveland Center
04:39PM 41.1753 -79.8594 18° North 467 537 28,100 -660 Descending Cleveland Center
04:40PM 41.2950 -79.8094 17° North 458 527 28,000 -60 Descending Cleveland Center
04:41PM 41.4156 -79.7531 19° North 457 526 28,000  Level Cleveland Center
04:42PM 41.5356 -79.7022 18° North 455 524 28,000  Level Cleveland Center
04:43PM 41.6675 -79.6417 19° North 458 527 28,000 -480 Level Cleveland Center
04:44PM 41.8008 -79.5847 18° North 456 525 27,000 -1,200 Descending Cleveland Center
04:45PM 41.9192 -79.5317 18° North 452 520 25,500 -1,560 Descending Cleveland Center
04:47PM 42.0372 -79.4797 18° North 446 513 23,800 -1,980 Descending Cleveland Center
04:48PM 42.1539 -79.4294 18° North 442 509 21,500 -2,340 Descending Cleveland Center
04:49PM 42.2714 -79.3739 19° North 448 516 19,000 -2,820 Descending Cleveland Center
04:50PM 42.4050 -79.3136 18° North 426 490 15,700 -3,000 Descending Cleveland Center
04:51PM 42.5136 -79.2656 18° North 419 482 12,900 -2,040 Descending Cleveland Center
04:52PM 42.6139 -79.2167 20° North 388 447 11,500 -1,200 Descending Cleveland Center
04:53PM 42.7039 -79.1653 23° Northeast 355 409 10,500 -1,440 Descending Cleveland Center
04:54PM 42.7975 -79.1014 27° Northeast 333 383 8,600 -1,920 Descending Cleveland Center
04:55PM 42.8758 -79.0267 35° Northeast 328 377 6,500 -1,800 Descending Cleveland Center
04:56PM 42.9461 -78.9553 37° Northeast 331 381 4,900 -1,440 Descending Cleveland Center
04:57PM 43.0167 -78.8667 43° Northeast 285 328 3,500 -1,080 Descending Buffalo TRACON
04:58PM 43.0833 -78.8333 20° North 223 257 2,600 -1,020 Descending Buffalo TRACON
04:59PM 43.1167 -78.8667 324° Northwest 118 136 1,500 -900 Descending Buffalo TRACON
05:00PM 43.1167 -78.9167 270° West 117 135 800 -720 Descending Buffalo TRACON
05:02PM 43.1000 -78.9333 251° West  Level FlightAware Approximate